Location: Sungai Bunut
(2.6333°N, 113.7333°E)
Time: 15:28:06
(UTC+00:00)

Altair - Pass Details

Date: 09 December 2023
Orbit: 1501 x 1682 km, 47.2° (Epoch: 24 February)

Event Time Altitude Azimuth Distance (km) Brightness Sun altitude
Rises 18:47:32 0° 197° (SSW) 4,924 10.3 -48.4°
Reaches altitude 10° 18:51:23 10° 186° (S) 3,942 9.8 -47.6°
Maximum altitude 18:59:39 28° 131° (SE) 2,762 9.1 -45.8°
Drops below altitude 10° 19:07:46 10° 76° (ENE) 3,903 10.0 -44.1°
Sets 19:11:30 0° 65° (ENE) 4,869 10.5 -43.3°
